This is the latest recevied weather packets stored in our database for station/object WW3TRG. If no packets are shown the sender has not sent any weather packets the latest 10 day(s).
| Time | Temp. | Humidity | Pressure | Rain* | Wind** | Luminosity | Snow |
|---|---|---|---|---|---|---|---|
| 1777860239 | 7.78° C | 73% | 1012.1 hPa | 0 mm | - | 0 W/m² | - |
| 1777859935 | 7.78° C | 73% | 1012.2 hPa | 0 mm | - | 0 W/m² | - |
| 1777859632 | 7.78° C | 75% | 1012.1 hPa | 0 mm | - | 0 W/m² | - |
| 1777859328 | 7.78° C | 71% | 1012.1 hPa | 0 mm | - | 0 W/m² | - |
| 1777859024 | 8.33° C | 74% | 1012.2 hPa | 0 mm | - | 0 W/m² | - |
| 1777858722 | 8.33° C | 72% | 1012.1 hPa | 0 mm | - | 0 W/m² | - |
| 1777858419 | 8.33° C | 70% | 1012.1 hPa | 0 mm | - | 0 W/m² | - |
| 1777858116 | 8.33° C | 72% | 1012 hPa | 0 mm | - | 0 W/m² | - |
| 1777857814 | 8.33° C | 70% | 1012 hPa | 0 mm | - | 0 W/m² | - |
| 1777857511 | 8.33° C | 72% | 1012 hPa | 0 mm | - | 0 W/m² | - |
| 1777857207 | 8.89° C | 69% | 1011.8 hPa | 0 mm | - | 0 W/m² | - |
| 1777856903 | 8.89° C | 68% | 1011.9 hPa | 0 mm | - | 0 W/m² | - |
| 1777856599 | 8.89° C | 69% | 1011.9 hPa | 0 mm | - | 0 W/m² | - |
| 1777856296 | 8.89° C | 70% | 1011.6 hPa | 0 mm | - | 0 W/m² | - |
| 1777855993 | 8.89° C | 68% | 1011.9 hPa | 0 mm | - | 0 W/m² | - |
| 1777855690 | 8.89° C | 69% | 1011.7 hPa | 0 mm | - | 0 W/m² | - |
| 1777855388 | 8.89° C | 67% | 1011.5 hPa | 0 mm | - | 0 W/m² | - |
| 1777855084 | 8.89° C | 70% | 1011.4 hPa | 0 mm | - | 0 W/m² | - |
| 1777854781 | 9.44° C | 68% | 1011.4 hPa | 0 mm | - | 0 W/m² | - |
| 1777854477 | 9.44° C | 69% | 1011.5 hPa | 0 mm | - | 0 W/m² | - |
| 1777854175 | 10° C | 67% | 1011.5 hPa | 0 mm | - | 0 W/m² | - |
| 1777853872 | 10° C | 64% | 1011.2 hPa | 0 mm | - | 0 W/m² | - |
| 1777853569 | 10.56° C | 65% | 1011.3 hPa | 0 mm | - | 0 W/m² | - |
| 1777853266 | 10.56° C | 64% | 1011.2 hPa | 0 mm | - | 0 W/m² | - |
| 1777852963 | 11.11° C | 61% | 1011.2 hPa | 0 mm | - | 0 W/m² | - |
* Rain latest hour (hover to see other rain measurements)
** Current wind speed in m/s (hover to see current wind gust speed)